Temp
8 10 13 11 10 11 9 9 8 10 11 12 12 12 14 14 14 14 12 11 10 7 5 3 1 2 2 4 5 7 6 5 6 5 4 3 2 1 -0 -0 -1 -2 -2 -2
5 10 10 11 13 14 13 14 12 11 12 15 15 12 12 14 14 13 12 10 9 7 5 2 1 2 3 5 6 5 5 5 4 4 3 2 1 -1 -1 -0 -0 -0 -1 -1
5 9 7 8 11 14 14 14 14 13 15 13 13 14 14 15 15 15 13 10 8 6 5 3 1 4 5 6 4 4 4 4 4 3 2 1 -0 -1 0 -0 -0 -1 -2 -2
5 7 6 11 13 14 13 14 15 15 16 16 15 15 15 14 14 14 14 11 8 6 5 3 2 0 0 1 3 3 3 3 3 2 2 0 0 -0 -1 -1 -1 -2 -3 -3
5 6 9 11 13 14 12 12 15 15 16 16 15 15 15 14 13 13 13 11 9 7 5 4 3 2 4 3 3 3 4 3 3 2 1 0 -1 -1 -1 -2 -2 -3 -3 -4
5 5 6 11 14 13 13 11 14 15 15 15 15 14 15 15 13 12 11 11 10 8 6 4 3 4 1 0 2 2 2 2 2 1 1 -0 -1 -1 -2 -3 -3 -4 -4 -5
6 6 8 12 13 14 10 11 14 14 14 13 13 14 12 11 11 10 10 10 9 7 6 4 2 1 1 1 2 1 1 1 1 1 -0 -1 -2 -3 -3 -4 -5 -5 -5 -5
7 6 6 13 13 11 13 13 13 14 13 13 12 11 10 10 9 7 9 7 8 7 6 6 5 7 4 1 2 1 0 0 1 -0 -1 -2 -3 -5 -7 -8 -8 -9 -9 -8
8 9 12 12 12 12 10 12 12 12 12 12 11 10 9 7 7 6 6 6 5 6 5 4 2 7 3 1 1 -0 -0 0 -0 -2 -2 -3 -3 -4 -8 -8 -8 -8 -8 -8
8 10 11 12 11 11 11 11 12 11 11 12 11 9 7 7 7 4 3 4 5 4 4 3 3 2 2 2 1 0 -0 -1 -1 -2 -3 -4 -5 -6 -8 -8 -8 -8 -8 -8
6 10 10 10 11 10 9 9 9 10 11 11 11 11 7 7 6 5 3 2 5 4 4 4 3 2 2 1 1 -0 -1 -1 -2 -3 -4 -5 -7 -8 -8 -9 -9 -8 -9 -9
7 10 10 11 9 8 8 8 9 9 10 10 9 10 8 7 6 4 2 1 1 4 5 5 4 3 2 1 0 -0 -1 -3 -3 -5 -7 -7 -8 -9 -9 -9 -9 -9 -9 -9
8 9 9 8 9 9 9 8 7 6 7 8 8 9 8 7 5 4 3 3 3 4 4 5 4 3 2 1 0 -1 -1 -3 -5 -6 -7 -8 -8 -9 -10 -10 -10 -9 -10 -10
8 8 8 8 9 8 8 8 6 5 5 6 7 8 8 6 4 5 6 4 3 3 4 3 3 3 2 1 -1 -2 -4 -4 -5 -6 -6 -7 -7 -8 -9 -10 -10 -9 -10 -10
8 8 8 8 7 7 7 8 8 6 6 6 6 6 6 5 3 3 5 4 3 2 1 1 0 1 1 0 -1 -2 -4 -5 -6 -6 -6 -7 -7 -8 -8 -10 -10 -11 -12 -11
8 7 7 7 7 8 7 7 8 8 8 7 6 6 5 4 5 5 4 2 3 4 3 2 1 1 -0 -2 -3 -4 -5 -5 -5 -6 -7 -8 -8 -8 -8 -9 -10 -11 -11 -12
6 7 8 7 7 7 7 8 8 8 8 7 6 5 5 5 4 5 5 4 3 3 3 3 2 0 -2 -2 -3 -5 -6 -5 -6 -7 -8 -8 -8 -9 -9 -10 -10 -10 -10 -11
4 4 5 5 5 6 6 6 5 5 5 5 5 5 4 4 3 3 2 4 3 2 1 1 0 -0 -0 -2 -4 -5 -6 -6 -8 -8 -8 -8 -9 -9 -9 -9 -9 -9 -10 -11
3 3 3 3 3 4 4 3 3 4 5 5 4 5 4 3 3 3 2 2 2 2 1 0 -0 -1 -2 -3 -5 -6 -7 -7 -8 -8 -8 -9 -9 -9 -9 -9 -10 -10 -10 -11
1 -0 -0 2 2 2 2 3 4 4 4 3 3 3 3 2 2 2 1 -0 -0 1 1 0 -1 -2 -2 -3 -5 -7 -7 -7 -8 -8 -8 -9 -9 -9 -9 -10 -10 -10 -11 -11
-0 0 1 1 2 2 1 0 1 2 2 2 1 0 1 1 1 -0 -1 -1 -1 -1 -0 -1 -2 -2 -3 -4 -6 -7 -7 -8 -8 -8 -9 -9 -9 -10 -10 -10 -11 -11 -11 -11
-2 -1 -1 -1 -1 -1 -0 -1 -0 0 -0 -1 -1 -1 -1 -1 -1 -2 -3 -1 -2 -1 -2 -3 -4 -3 -3 -4 -7 -7 -8 -9 -9 -9 -9 -10 -10 -10 -10 -11 -11 -11 -11 -11
-1 -1 -1 -1 -1 -2 -2 -1 -1 -1 -2 -2 -2 -2 -2 -3 -3 -3 -2 -2 -2 -2 -3 -4 -4 -4 -5 -6 -6 -7 -8 -9 -9 -9 -10 -10 -10 -10 -10 -10 -10 -11 -11 -11
-2 -2 -2 -2 -3 -3 -3 -3 -3 -3 -2 -3 -3 -3 -3 -3 -3 -3 -3 -3 -3 -4 -4 -4 -5 -6 -6 -6 -7 -7 -8 -9 -10 -10 -10 -10 -10 -10 -10 -10 -11 -11 -12 -12
-3 -3 -3 -4 -5 -5 -5 -4 -4 -5 -5 -5 -5 -5 -5 -5 -4 -4 -4 -4 -5 -5 -5 -5 -6 -6 -7 -8 -8 -8 -9 -9 -10 -10 -10 -10 -10 -10 -11 -11 -11 -12 -13 -13
-4 -4 -5 -5 -5 -5 -6 -6 -6 -6 -7 -7 -6 -5 -5 -5 -5 -5 -5 -6 -6 -6 -6 -6 -7 -8 -8 -9 -9 -9 -10 -10 -10 -11 -11 -11 -11 -11 -12 -12 -12 -13 -13 -14
-5 -5 -5 -5 -6 -6 -6 -6 -6 -7 -7 -7 -7 -6 -6 -6 -6 -6 -6 -7 -7 -7 -7 -7 -8 -9 -9 -9 -10 -10 -10 -10 -11 -11 -11 -12 -12 -12 -13 -13 -13 -13 -14 -14
Height
1416 1410 1395 1399 1404 1399 1408 1405 1411 1398 1393 1387 1390 1389 1387 1385 1385 1386 1390 1394 1396 1400 1403 1409 1415 1420 1426 1430 1437 1442 1446 1452 1459 1464 1467 1471 1473 1476 1478 1480 1481 1482 1483 1483
1427 1406 1401 1395 1387 1382 1383 1381 1388 1394 1387 1380 1380 1387 1387 1382 1383 1385 1389 1391 1394 1398 1400 1403 1408 1413 1421 1426 1433 1440 1444 1450 1456 1460 1464 1468 1470 1474 1476 1477 1478 1479 1480 1481
1423 1408 1412 1400 1381 1373 1371 1374 1375 1380 1371 1373 1378 1377 1377 1375 1376 1375 1382 1385 1387 1391 1394 1398 1401 1405 1412 1420 1426 1434 1440 1446 1452 1457 1461 1464 1467 1470 1472 1474 1476 1477 1479 1479
1421 1411 1410 1383 1371 1369 1368 1366 1366 1364 1365 1366 1371 1371 1371 1372 1372 1372 1374 1378 1384 1388 1392 1397 1402 1407 1412 1417 1423 1428 1436 1443 1448 1453 1457 1461 1464 1467 1470 1472 1473 1476 1477 1477
1418 1407 1390 1378 1369 1365 1370 1371 1361 1360 1361 1362 1366 1368 1364 1369 1368 1368 1370 1376 1381 1386 1390 1394 1396 1404 1411 1413 1419 1426 1432 1438 1444 1449 1453 1457 1461 1464 1467 1469 1471 1473 1475 1476
1407 1405 1396 1368 1363 1368 1368 1370 1362 1362 1361 1362 1364 1363 1359 1361 1363 1366 1369 1372 1375 1380 1385 1390 1394 1398 1404 1408 1414 1420 1426 1433 1439 1445 1450 1454 1458 1462 1464 1466 1469 1471 1472 1474
1394 1396 1383 1363 1364 1363 1375 1365 1357 1362 1362 1364 1364 1364 1362 1363 1363 1364 1364 1367 1370 1375 1378 1382 1389 1395 1403 1407 1412 1417 1424 1431 1436 1442 1447 1452 1455 1458 1461 1464 1466 1468 1470 1472
1383 1388 1381 1357 1359 1360 1355 1359 1358 1357 1359 1360 1362 1362 1361 1362 1363 1362 1362 1364 1369 1372 1377 1382 1388 1391 1398 1406 1409 1417 1423 1428 1434 1439 1443 1448 1452 1456 1460 1464 1465 1467 1470 1471
1374 1364 1360 1358 1356 1356 1356 1357 1357 1358 1358 1358 1357 1359 1360 1359 1360 1361 1360 1362 1366 1370 1374 1379 1385 1388 1397 1401 1408 1414 1421 1427 1432 1437 1441 1446 1449 1453 1458 1461 1464 1467 1469 1471
1369 1360 1359 1355 1358 1359 1357 1356 1356 1357 1357 1355 1356 1357 1356 1357 1359 1360 1359 1360 1364 1369 1372 1377 1383 1389 1395 1401 1407 1414 1419 1425 1430 1434 1438 1444 1447 1451 1456 1458 1461 1465 1466 1469
1370 1361 1358 1358 1356 1358 1360 1359 1356 1354 1354 1353 1353 1353 1355 1355 1357 1360 1361 1360 1363 1369 1373 1377 1383 1388 1395 1400 1406 1412 1419 1424 1428 1432 1436 1440 1446 1449 1454 1456 1458 1461 1464 1466
1362 1356 1356 1355 1358 1359 1359 1356 1353 1351 1350 1350 1351 1351 1353 1354 1357 1360 1363 1364 1367 1369 1374 1378 1383 1388 1394 1399 1406 1411 1415 1421 1425 1428 1433 1436 1442 1446 1449 1452 1453 1457 1460 1463
1360 1358 1357 1357 1356 1356 1355 1354 1354 1353 1352 1349 1348 1348 1351 1354 1357 1361 1365 1368 1370 1372 1376 1379 1383 1387 1393 1398 1403 1408 1413 1417 1422 1427 1431 1434 1438 1442 1445 1449 1450 1454 1457 1460
1354 1356 1356 1355 1354 1354 1353 1351 1351 1352 1352 1351 1351 1350 1353 1357 1359 1362 1366 1369 1372 1374 1376 1379 1383 1387 1391 1396 1402 1407 1412 1415 1420 1424 1428 1432 1437 1438 1442 1445 1446 1449 1453 1456
1356 1356 1355 1354 1354 1353 1352 1350 1350 1350 1351 1350 1350 1352 1355 1359 1364 1365 1365 1369 1371 1374 1377 1380 1383 1386 1390 1395 1400 1405 1411 1414 1418 1422 1426 1429 1433 1437 1439 1443 1446 1447 1449 1452
1353 1354 1353 1353 1352 1351 1351 1350 1349 1349 1351 1352 1352 1352 1355 1358 1360 1362 1366 1368 1369 1371 1375 1378 1382 1385 1389 1393 1398 1403 1408 1411 1415 1418 1423 1426 1430 1434 1436 1440 1443 1445 1447 1450
1352 1351 1350 1350 1349 1349 1348 1348 1348 1348 1349 1350 1350 1351 1353 1354 1356 1358 1360 1365 1368 1370 1373 1376 1379 1384 1388 1392 1397 1401 1405 1408 1412 1416 1419 1422 1427 1431 1433 1437 1440 1443 1445 1447
1351 1350 1350 1348 1347 1347 1347 1347 1347 1347 1348 1348 1349 1349 1350 1352 1354 1355 1357 1359 1364 1367 1371 1376 1380 1383 1386 1391 1395 1399 1402 1406 1410 1414 1417 1420 1424 1427 1430 1434 1438 1440 1443 1444
1349 1349 1348 1347 1346 1345 1346 1345 1345 1345 1344 1344 1346 1347 1348 1351 1353 1355 1358 1360 1364 1366 1370 1375 1379 1383 1386 1390 1395 1399 1401 1404 1408 1412 1415 1418 1421 1425 1428 1431 1434 1437 1439 1441
1349 1348 1347 1345 1343 1343 1343 1344 1343 1343 1343 1343 1344 1345 1346 1348 1351 1354 1357 1361 1364 1367 1370 1374 1378 1382 1386 1389 1393 1397 1398 1402 1405 1409 1412 1415 1419 1422 1425 1428 1431 1434 1436 1438
1347 1347 1345 1345 1344 1344 1345 1346 1344 1343 1343 1344 1345 1345 1347 1348 1350 1354 1358 1360 1363 1367 1371 1375 1378 1382 1385 1388 1392 1394 1397 1400 1404 1407 1410 1413 1417 1420 1422 1425 1428 1431 1433 1435
1348 1347 1346 1346 1348 1347 1346 1347 1345 1344 1344 1345 1346 1347 1348 1350 1352 1356 1359 1361 1364 1367 1371 1375 1378 1382 1385 1388 1392 1393 1396 1400 1403 1406 1409 1412 1414 1417 1420 1423 1426 1428 1430 1432
1349 1350 1350 1349 1349 1350 1351 1350 1349 1348 1348 1348 1350 1351 1351 1353 1356 1358 1360 1363 1365 1368 1372 1375 1378 1382 1385 1388 1390 1393 1396 1399 1402 1405 1408 1410 1413 1415 1418 1421 1423 1425 1428 1430
1352 1352 1353 1351 1352 1353 1353 1352 1352 1352 1352 1352 1353 1354 1356 1356 1358 1360 1362 1364 1367 1369 1372 1375 1379 1382 1385 1388 1391 1394 1397 1399 1402 1404 1407 1409 1412 1414 1417 1419 1421 1423 1425 1427
1353 1353 1352 1354 1355 1355 1354 1355 1355 1355 1355 1355 1356 1357 1358 1359 1360 1362 1364 1366 1368 1371 1373 1376 1380 1382 1386 1389 1392 1394 1397 1399 1401 1404 1406 1409 1411 1413 1415 1417 1419 1421 1423 1424
1353 1355 1353 1356 1356 1357 1357 1358 1358 1357 1357 1357 1358 1359 1360 1361 1363 1364 1366 1368 1370 1373 1375 1378 1381 1384 1387 1390 1392 1395 1397 1399 1401 1403 1405 1408 1410 1412 1414 1415 1417 1419 1420 1421
1355 1354 1355 1356 1356 1357 1357 1358 1357 1358 1359 1360 1360 1361 1362 1364 1365 1367 1369 1371 1372 1375 1377 1379 1382 1385 1387 1390 1392 1394 1396 1398 1401 1403 1405 1407 1409 1411 1412 1414 1415 1417 1418 1419
Wind_Speed
16 19 24 15 13 12 9 8 5 7 13 9 9 8 12 8 12 7 12 17 21 24 29 32 33 44 42 42 38 35 30 26 23 20 17 16 13 11 10 9 8 5 3 2
13 17 17 22 23 21 20 18 13 16 21 16 13 15 17 19 18 13 15 19 22 25 29 33 34 46 43 42 36 35 27 27 24 21 19 17 14 13 12 11 10 9 8 7
11 18 14 14 21 20 21 19 19 17 20 10 10 14 16 16 19 20 17 20 24 28 31 34 40 46 47 43 42 35 33 28 25 22 20 17 16 17 14 12 11 10 9 7
9 13 14 9 5 7 13 14 18 17 18 12 13 14 16 14 15 15 12 17 23 25 27 30 30 33 34 35 39 36 33 30 27 24 21 20 20 16 15 14 12 11 10 8
5 10 14 24 15 12 3 10 12 13 14 13 11 16 21 16 17 12 12 17 25 25 27 30 33 32 34 36 36 34 34 33 30 25 23 22 20 18 17 15 13 12 10 8
8 6 7 14 4 4 5 10 11 13 13 9 10 10 8 10 15 16 16 19 25 30 28 32 35 39 38 35 35 35 33 32 29 27 25 22 21 20 18 15 13 12 10 9
16 15 11 22 20 21 10 7 9 11 4 7 8 11 9 6 1 7 16 23 25 34 35 37 37 35 35 34 34 34 31 29 28 26 25 22 22 20 17 15 13 12 12 10
11 10 13 10 13 19 17 24 22 15 13 11 11 15 14 12 8 7 12 21 26 32 33 31 32 26 35 35 31 31 31 29 27 25 24 23 22 19 16 15 13 12 10 8
5 6 11 6 10 9 13 12 14 15 17 19 14 15 13 9 9 9 11 19 26 31 33 32 34 29 31 34 31 33 32 28 25 25 23 23 23 21 18 16 13 13 12 10
16 15 18 18 16 18 19 20 20 22 20 19 12 10 7 8 10 11 13 17 23 26 27 30 30 28 27 29 31 32 32 28 25 24 24 23 21 20 16 16 15 13 12 12
18 16 19 20 20 12 12 17 24 25 21 18 17 12 8 9 11 12 14 18 23 24 26 27 27 26 25 27 30 31 29 27 26 25 24 23 19 17 15 16 15 14 14 13
8 11 10 12 3 7 15 16 13 9 12 9 10 12 10 12 14 15 15 18 19 21 22 23 24 24 25 27 29 30 29 27 24 23 22 21 19 18 20 17 21 19 17 15
15 21 16 14 13 14 14 7 11 11 13 7 4 7 12 15 17 16 16 16 16 18 19 21 23 24 26 29 30 28 25 24 23 21 20 19 19 19 18 20 17 19 19 18
8 10 15 16 12 7 8 4 7 4 8 4 3 7 12 14 18 19 17 15 15 16 17 19 21 22 25 27 27 25 21 23 22 21 21 20 19 17 16 17 19 20 21 19
15 12 11 9 7 7 5 2 4 8 9 6 11 12 8 2 8 10 14 18 18 17 18 18 20 21 24 25 26 25 21 23 21 22 22 23 22 18 17 16 14 15 16 19
9 9 10 11 11 9 10 7 4 2 5 6 9 11 13 15 15 11 11 17 18 18 18 19 21 20 23 24 23 24 24 24 24 23 23 21 20 20 20 16 16 15 13 13
10 10 8 9 8 9 10 10 11 10 8 7 8 10 13 15 18 18 19 19 18 17 17 19 19 21 23 24 24 22 23 25 22 21 20 19 20 20 19 18 17 15 14 17
7 9 11 12 12 11 8 7 8 8 8 7 9 12 15 19 17 20 22 23 22 20 18 17 17 19 20 22 22 18 21 21 21 18 18 19 17 18 18 17 16 16 15 18
4 6 6 5 4 4 5 6 7 9 10 10 12 12 13 15 17 17 17 17 19 19 18 17 16 15 18 20 19 16 18 17 17 18 17 16 18 17 17 17 17 17 17 19
1 2 2 2 2 2 4 7 7 7 7 8 8 11 14 15 16 16 18 19 18 16 14 15 16 16 17 20 20 16 17 16 16 18 18 17 18 19 18 17 17 18 19 20
4 4 4 5 5 4 3 3 2 2 3 5 7 10 13 15 16 17 20 19 16 13 14 15 15 15 16 18 17 14 13 13 16 15 15 16 16 17 17 17 17 18 18 19
8 9 10 9 7 7 6 6 6 4 2 2 5 8 12 13 16 17 16 14 15 13 16 18 17 16 14 16 14 13 14 15 16 15 14 15 15 16 17 16 17 17 16 16
8 8 7 6 6 6 4 4 5 6 7 9 10 11 14 15 13 11 12 11 12 14 17 18 17 15 15 18 13 12 12 13 14 14 12 14 14 15 15 15 15 16 16 16
3 3 3 4 4 3 2 5 6 7 8 9 10 10 8 9 10 8 7 9 11 14 16 18 16 15 17 14 12 12 12 13 13 13 12 12 13 13 14 15 14 15 15 15
1 2 2 2 3 1 3 4 4 6 7 7 7 7 7 7 5 9 11 12 13 13 12 12 14 15 14 12 12 12 11 11 11 12 12 13 13 13 14 14 13 12 13 13
1 1 2 2 2 2 3 3 3 4 5 6 6 7 7 8 11 12 13 13 12 12 13 14 14 14 12 12 12 11 11 11 11 11 10 12 11 12 12 11 12 11 11 10
4 3 3 2 2 3 4 5 6 5 7 7 8 9 9 10 11 11 12 11 11 11 12 12 13 13 12 12 12 12 10 9 10 10 11 11 11 10 10 9 9 8 9 11
Wind_Direction
322 308 288 237 234 235 197 213 220 285 285 274 300 318 304 252 254 231 204 201 194 189 183 180 184 190 195 192 190 192 198 199 203 203 205 208 206 200 201 201 199 188 190 188
311 294 274 268 257 254 254 264 246 262 269 273 239 237 255 277 256 234 215 204 201 195 190 188 188 193 194 193 192 199 197 201 202 205 206 208 198 198 203 204 206 203 201 207
279 298 313 287 248 254 260 246 250 253 263 176 239 249 242 248 259 232 219 210 198 195 190 189 193 192 192 193 196 196 201 201 204 207 207 205 198 204 208 207 207 207 208 207
274 288 273 280 328 287 279 252 251 246 258 264 237 257 264 256 263 267 225 209 199 192 188 188 184 184 183 191 192 196 197 202 205 207 206 204 209 207 204 206 205 203 203 204
244 251 273 285 277 279 292 266 255 258 264 266 249 260 264 254 251 232 216 206 198 189 185 179 181 183 190 195 195 196 202 205 207 207 207 209 208 207 206 204 199 200 202 202
212 239 242 253 178 167 309 276 255 265 278 291 284 257 269 303 234 224 216 208 207 193 183 184 188 192 188 191 193 195 201 201 205 206 208 207 207 206 201 198 200 199 197 201
222 236 252 263 266 263 246 228 330 309 312 290 272 292 333 347 21 205 228 204 201 190 189 190 187 186 193 194 195 197 199 197 200 201 204 203 203 199 196 193 196 196 198 201
233 244 256 255 256 237 244 249 259 258 278 285 280 287 279 273 251 233 209 191 194 192 193 194 192 203 203 198 202 195 193 194 197 194 198 194 193 190 183 177 184 182 186 193
229 235 257 260 290 330 334 293 292 286 289 284 279 281 273 246 224 205 210 189 189 192 187 188 195 207 200 200 195 191 191 195 193 193 196 195 193 190 178 181 184 182 186 184
277 254 264 289 269 273 289 290 277 277 282 275 268 270 252 206 195 186 182 182 186 187 187 184 190 194 203 196 191 190 191 193 193 197 195 195 191 192 185 186 187 190 191 193
287 269 294 292 278 290 312 301 278 269 266 267 273 256 233 185 180 176 168 171 171 174 175 176 179 187 189 189 186 188 192 193 194 194 193 192 189 192 193 196 194 193 199 200
256 260 282 296 334 299 304 310 285 290 264 259 266 251 214 181 165 158 159 156 156 162 169 173 178 181 182 183 185 190 189 189 191 188 184 191 187 191 193 208 197 195 199 197
256 280 305 298 300 292 298 301 277 306 328 326 298 222 188 170 158 157 155 154 158 164 171 172 175 180 183 184 186 190 191 186 188 183 182 185 186 193 194 204 208 206 210 216
263 300 289 275 270 288 299 299 245 351 323 351 37 142 149 155 157 156 158 161 163 170 170 173 175 183 186 186 185 186 184 187 189 182 184 185 191 192 193 201 205 211 215 221
273 278 270 283 270 274 298 311 233 212 198 173 170 161 162 162 179 177 171 184 174 167 167 172 178 184 186 187 188 185 180 184 188 183 188 187 187 192 205 205 195 204 211 210
256 267 268 262 269 266 259 261 269 244 207 196 180 175 174 182 175 179 186 180 175 178 180 184 190 188 185 184 182 182 187 195 193 192 195 191 189 192 203 198 191 193 195 194
268 269 256 262 271 271 266 264 263 263 268 237 209 197 194 196 191 195 204 198 190 194 195 198 199 190 187 189 184 185 190 197 193 195 196 191 191 194 196 193 193 196 196 203
276 284 287 285 283 275 264 264 279 286 274 262 234 228 212 207 195 188 189 193 191 192 193 194 196 194 194 193 186 188 195 195 189 193 195 192 194 194 192 194 197 195 193 204
337 327 324 326 321 283 271 260 264 280 276 266 248 239 227 218 213 207 200 193 189 188 186 187 190 192 190 186 182 179 198 195 181 192 192 197 193 190 191 192 194 194 195 206
15 21 30 345 342 309 286 275 271 276 262 235 228 223 213 205 203 199 190 179 180 189 183 181 182 184 185 183 179 184 207 197 187 195 197 196 195 191 196 195 195 196 204 212
93 92 76 61 63 67 58 20 12 339 304 250 214 207 203 194 188 184 177 175 172 169 172 175 177 181 182 183 177 203 207 190 180 194 194 190 195 191 196 196 196 201 206 212
86 82 77 71 60 55 48 30 34 38 22 248 201 186 175 167 164 165 171 177 165 169 182 183 181 183 185 172 176 195 185 175 180 190 194 192 194 195 195 197 197 206 209 215
86 79 78 77 66 57 68 72 87 99 108 116 126 134 135 133 139 155 163 175 184 186 183 182 187 186 168 172 190 178 176 177 182 186 193 192 196 190 194 200 204 207 210 212
91 83 77 81 73 71 94 101 105 111 119 123 126 124 128 143 148 165 182 181 178 175 188 194 189 179 176 184 182 180 180 178 181 184 193 185 187 194 200 205 208 212 210 215
32 5 95 62 56 100 117 111 99 103 103 107 121 136 141 153 174 153 156 157 164 177 175 170 169 174 180 181 182 183 183 177 177 180 185 185 191 196 203 208 209 209 205 213
131 176 102 159 171 159 147 149 140 124 130 138 136 133 131 133 138 140 142 150 157 159 161 162 169 174 175 176 175 175 181 186 188 184 182 188 192 193 200 203 199 208 216 219
185 165 137 153 150 166 169 157 141 136 145 143 142 141 144 148 151 151 151 152 154 158 162 165 168 171 174 177 178 185 193 185 177 178 175 179 180 187 194 197 206 205 211 221